Previsão horária em Barrie

Hoje, 20 Outubro, Terça-feira

Tempo Temperatura Precipitação Vento Pressão Humidade
00:00 +6°C° 0.5 mm 2 m/s 745 mmHg 93%
01:00 +6°C° 0.5 mm 2 m/s 745 mmHg 93%
02:00 +6°C° 0.7 mm 2 m/s 745 mmHg 94%
03:00 +7°C° 0.7 mm 1 m/s 745 mmHg 94%
04:00 +7°C° 0.7 mm 1 m/s 745 mmHg 95%
05:00 +6°C° 0.1 mm 2 m/s 745 mmHg 94%
06:00 +5°C° 0.1 mm 3 m/s 746 mmHg 92%
07:00 +5°C° 0.1 mm 3 m/s 746 mmHg 91%
08:00 +5°C° 0 mm 4 m/s 747 mmHg 88%
09:00 +5°C° 0 mm 4 m/s 747 mmHg 84%
10:00 +5°C° 0 mm 4 m/s 748 mmHg 80%
11:00 +6°C° 0 mm 4 m/s 748 mmHg 76%
12:00 +7°C° 0 mm 3 m/s 749 mmHg 72%
13:00 +8°C° 0 mm 3 m/s 749 mmHg 67%
14:00 +8°C° 0 mm 2 m/s 749 mmHg 66%
15:00 +8°C° 0 mm 2 m/s 748 mmHg 65%
16:00 +9°C° 0 mm 1 m/s 748 mmHg 64%
17:00 +8°C° 0 mm 1 m/s 748 mmHg 68%
18:00 +7°C° 0 mm 1 m/s 748 mmHg 72%
19:00 +6°C° 0 mm 1 m/s 748 mmHg 76%
20:00 +5°C° 0 mm 2 m/s 748 mmHg 77%
21:00 +4°C° 0 mm 3 m/s 748 mmHg 79%
22:00 +4°C° 0 mm 4 m/s 747 mmHg 80%
23:00 +5°C° 0 mm 5 m/s 746 mmHg 83%

Amanhã, 21 Outubro, Quarta-feira

Tempo Temperatura Precipitação Vento Pressão Humidade
00:00 +5°C° 0 mm 6 m/s 745 mmHg 85%
01:00 +7°C° 0 mm 6 m/s 744 mmHg 87%
02:00 +6°C° 1.1 mm 7 m/s 743 mmHg 90%
03:00 +8°C° 1.1 mm 7 m/s 742 mmHg 93%
04:00 +9°C° 1.1 mm 8 m/s 740 mmHg 95%
05:00 +11°C° 0.6 mm 7 m/s 740 mmHg 95%
06:00 +12°C° 0.6 mm 7 m/s 739 mmHg 95%
07:00 +14°C° 0.6 mm 7 m/s 739 mmHg 95%
08:00 +14°C° 3.2 mm 6 m/s 739 mmHg 93%
09:00 +14°C° 3.2 mm 6 m/s 739 mmHg 90%
10:00 +15°C° 3.2 mm 6 m/s 740 mmHg 88%
11:00 +15°C° 0 mm 6 m/s 740 mmHg 82%
12:00 +15°C° 0 mm 6 m/s 741 mmHg 76%
13:00 +15°C° 0 mm 7 m/s 741 mmHg 70%
14:00 +14°C° 0 mm 6 m/s 742 mmHg 70%
15:00 +14°C° 0 mm 6 m/s 743 mmHg 69%
16:00 +13°C° 0 mm 5 m/s 743 mmHg 68%
17:00 +12°C° 0 mm 5 m/s 744 mmHg 70%
18:00 +11°C° 0 mm 4 m/s 745 mmHg 72%
19:00 +10°C° 0 mm 3 m/s 745 mmHg 74%
20:00 +10°C° 0 mm 4 m/s 746 mmHg 73%
21:00 +10°C° 0 mm 4 m/s 746 mmHg 72%
22:00 +8°C° 0 mm 4 m/s 746 mmHg 72%
23:00 +8°C° 0 mm 4 m/s 747 mmHg 72%

Depois de amanhã, 22 Outubro, Quinta-feira

Tempo Temperatura Precipitação Vento Pressão Humidade
00:00 +8°C° 0 mm 4 m/s 747 mmHg 73%
01:00 +8°C° 0 mm 3 m/s 747 mmHg 74%
02:00 +8°C° 0 mm 3 m/s 747 mmHg 75%
03:00 +7°C° 0 mm 3 m/s 748 mmHg 75%
04:00 +7°C° 0 mm 3 m/s 748 mmHg 75%
05:00 +7°C° 0 mm 3 m/s 748 mmHg 76%
06:00 +6°C° 0 mm 2 m/s 749 mmHg 78%
07:00 +6°C° 0 mm 2 m/s 749 mmHg 79%
08:00 +7°C° 0 mm 2 m/s 750 mmHg 75%
09:00 +7°C° 0 mm 2 m/s 750 mmHg 71%
10:00 +9°C° 0 mm 1 m/s 750 mmHg 67%
11:00 +9°C° 0.4 mm 1 m/s 750 mmHg 71%
12:00 +8°C° 0.4 mm 2 m/s 750 mmHg 76%
13:00 +7°C° 0.4 mm 2 m/s 750 mmHg 80%
14:00 +7°C° 0.5 mm 2 m/s 749 mmHg 82%
15:00 +7°C° 0.5 mm 3 m/s 749 mmHg 85%
16:00 +7°C° 0.5 mm 3 m/s 749 mmHg 87%
17:00 +6°C° 0 mm 4 m/s 748 mmHg 87%
18:00 +6°C° 0 mm 4 m/s 748 mmHg 88%
19:00 +5°C° 0 mm 5 m/s 747 mmHg 89%
20:00 +6°C° 0 mm 5 m/s 747 mmHg 89%
21:00 +6°C° 0 mm 5 m/s 746 mmHg 89%
22:00 +6°C° 0 mm 5 m/s 746 mmHg 90%
23:00 +6°C° 0 mm 5 m/s 745 mmHg 91%

23 Outubro, Sexta-feira

Tempo Temperatura Precipitação Vento Pressão Humidade
00:00 +6°C° 0 mm 5 m/s 744 mmHg 91%
01:00 +7°C° 0 mm 5 m/s 743 mmHg 92%
02:00 +7°C° 0 mm 5 m/s 743 mmHg 93%
03:00 +7°C° 0 mm 5 m/s 743 mmHg 94%
04:00 +8°C° 0 mm 5 m/s 742 mmHg 95%
05:00 +9°C° 0 mm 5 m/s 742 mmHg 94%
06:00 +10°C° 0 mm 6 m/s 741 mmHg 94%
07:00 +11°C° 0 mm 6 m/s 741 mmHg 94%
08:00 +15°C° 0 mm 7 m/s 741 mmHg 88%
09:00 +17°C° 0 mm 8 m/s 740 mmHg 81%
10:00 +19°C° 0 mm 9 m/s 740 mmHg 75%
11:00 +21°C° 0 mm 9 m/s 740 mmHg 72%
12:00 +22°C° 0 mm 9 m/s 739 mmHg 69%
13:00 +23°C° 0 mm 9 m/s 739 mmHg 66%
14:00 +22°C° 0.2 mm 8 m/s 739 mmHg 71%
15:00 +21°C° 0.2 mm 8 m/s 738 mmHg 75%
16:00 +21°C° 0.2 mm 7 m/s 738 mmHg 80%
17:00 +16°C° 1.1 mm 7 m/s 739 mmHg 82%
18:00 +12°C° 1.1 mm 8 m/s 740 mmHg 85%
19:00 +9°C° 1.1 mm 8 m/s 741 mmHg 88%
20:00 +7°C° 0.2 mm 8 m/s 742 mmHg 86%
21:00 +8°C° 0.2 mm 7 m/s 742 mmHg 84%
22:00 +6°C° 0.2 mm 7 m/s 743 mmHg 81%
23:00 +5°C° 0 mm 7 m/s 744 mmHg 81%

24 Outubro, Sábado

Tempo Temperatura Precipitação Vento Pressão Humidade
00:00 +5°C° 0 mm 6 m/s 744 mmHg 80%
01:00 +4°C° 0 mm 6 m/s 745 mmHg 80%
02:00 +5°C° 0 mm 5 m/s 746 mmHg 80%
03:00 +3°C° 0 mm 5 m/s 746 mmHg 79%
04:00 +3°C° 0 mm 5 m/s 747 mmHg 79%
05:00 +3°C° 0 mm 4 m/s 747 mmHg 79%
06:00 +1°C° 0 mm 4 m/s 747 mmHg 79%
07:00 +2°C° 0 mm 3 m/s 747 mmHg 79%
08:00 +2°C° 0 mm 3 m/s 747 mmHg 76%
09:00 +3°C° 0 mm 3 m/s 748 mmHg 72%
10:00 +4°C° 0 mm 4 m/s 748 mmHg 69%
11:00 +4°C° 0 mm 3 m/s 748 mmHg 65%
12:00 +5°C° 0 mm 3 m/s 748 mmHg 61%
13:00 +7°C° 0 mm 3 m/s 747 mmHg 56%
14:00 +5°C° 0 mm 3 m/s 747 mmHg 59%
15:00 +5°C° 0 mm 3 m/s 747 mmHg 61%
16:00 +5°C° 0 mm 4 m/s 747 mmHg 63%
17:00 +4°C° 0 mm 3 m/s 747 mmHg 66%
18:00 +3°C° 0 mm 3 m/s 747 mmHg 69%
19:00 +2°C° 0 mm 3 m/s 747 mmHg 72%
20:00 +2°C° 0 mm 3 m/s 747 mmHg 73%
21:00 +2°C° 0 mm 3 m/s 747 mmHg 73%
22:00 +2°C° 0 mm 3 m/s 747 mmHg 74%
23:00 +2°C° 0 mm 2 m/s 747 mmHg 73%

25 Outubro, Domingo

Tempo Temperatura Precipitação Vento Pressão Humidade
00:00 +2°C° 0 mm 2 m/s 747 mmHg 73%
01:00 +2°C° 0 mm 2 m/s 747 mmHg 72%
02:00 +2°C° 0 mm 2 m/s 747 mmHg 72%
03:00 +2°C° 0 mm 2 m/s 747 mmHg 72%
04:00 +1°C° 0 mm 2 m/s 747 mmHg 72%
05:00 +1°C° 0 mm 2 m/s 747 mmHg 73%
06:00 +1°C° 0 mm 2 m/s 748 mmHg 74%
07:00 +1°C° 0 mm 2 m/s 748 mmHg 75%
08:00 +2°C° 0 mm 2 m/s 748 mmHg 70%
09:00 +3°C° 0 mm 2 m/s 748 mmHg 65%
10:00 +5°C° 0 mm 2 m/s 748 mmHg 60%
11:00 +5°C° 0 mm 2 m/s 748 mmHg 57%
12:00 +5°C° 0 mm 3 m/s 747 mmHg 55%
13:00 +5°C° 0 mm 3 m/s 747 mmHg 53%
14:00 +5°C° 0 mm 3 m/s 747 mmHg 52%
15:00 +7°C° 0 mm 3 m/s 747 mmHg 52%
16:00 +7°C° 0 mm 2 m/s 747 mmHg 51%
17:00 +6°C° 0.1 mm 2 m/s 747 mmHg 58%
18:00 +5°C° 0.1 mm 2 m/s 747 mmHg 65%
19:00 +3°C° 0.1 mm 3 m/s 747 mmHg 72%
20:00 +3°C° 0.2 mm 3 m/s 747 mmHg 77%
21:00 +1°C° 0.2 mm 4 m/s 746 mmHg 82%
22:00 +1°C° 0.2 mm 4 m/s 746 mmHg 88%
23:00 +1°C° 0.1 mm 4 m/s 745 mmHg 88%

26 Outubro, Segunda-feira

Tempo Temperatura Precipitação Vento Pressão Humidade
00:00 +1°C° 0.1 mm 4 m/s 745 mmHg 88%
01:00 +1°C° 0.1 mm 4 m/s 744 mmHg 88%
02:00 0°C° 0.3 mm 4 m/s 744 mmHg 90%
03:00 0°C° 0.3 mm 4 m/s 744 mmHg 92%
04:00 0°C° 0.3 mm 4 m/s 744 mmHg 94%
05:00 0°C° 0.3 mm 4 m/s 744 mmHg 94%
06:00 0°C° 0.3 mm 4 m/s 744 mmHg 94%
07:00 0°C° 0.3 mm 4 m/s 743 mmHg 94%
08:00 0°C° 0.1 mm 4 m/s 744 mmHg 93%
09:00 0°C° 0.1 mm 4 m/s 744 mmHg 92%
10:00 +2°C° 0.1 mm 3 m/s 744 mmHg 91%
11:00 +2°C° 0 mm 3 m/s 744 mmHg 88%
12:00 +3°C° 0 mm 3 m/s 744 mmHg 85%
13:00 +4°C° 0 mm 3 m/s 744 mmHg 82%
14:00 +4°C° 0 mm 3 m/s 744 mmHg 82%
15:00 +4°C° 0 mm 3 m/s 744 mmHg 82%
16:00 +4°C° 0 mm 3 m/s 744 mmHg 82%
17:00 +4°C° 0.1 mm 3 m/s 744 mmHg 84%
18:00 +4°C° 0.1 mm 3 m/s 745 mmHg 85%
19:00 +4°C° 0.1 mm 3 m/s 745 mmHg 87%
20:00 +3°C° 0.3 mm 3 m/s 745 mmHg 88%
21:00 +3°C° 0.3 mm 3 m/s 744 mmHg 88%
22:00 +3°C° 0.3 mm 3 m/s 744 mmHg 89%
23:00 +3°C° 0.5 mm 4 m/s 744 mmHg 90%
Mostrar mais